Wichita, KS (67203)

1:56 AM CDT on July 25, 2016 (GMT -0500)
Indian Hills | | Change Station

Elev 1329 ft 37.72 °N, 97.37 °W | Updated 10 minutes ago

Mostly Cloudy
Mostly Cloudy
81.0 °F
Feels Like 88 °F
N
1.1
Wind Variable Wind from NNE

Today
High -- | Low -- °F
--% Chance of Precip.
Yesterday
High -- | Low -- °F
Precip. -- in
Pressure 29.89 in
Visibility 10.0 miles
Clouds Scattered Clouds 6000 ft
Mostly Cloudy 12000 ft
Mostly Cloudy 20000 ft
Heat Index 88 °F
Dew Point 77 °F
Humidity 89%
Rainfall 0.00 in
Snow Depth Not available.
6:27 AM 8:43 PM
Waning Gibbous, 69% visible
METAR KICT 250653Z 10003KT 10SM SCT060 BKN120 BKN200 29/22 A2994 RMK AO2 RAB17E33 TSE48 SLP120 TS MOVE AND DSIPTD P0000 T02940217
Pressure 29.89 in
Visibility 10.0 miles
Clouds Scattered Clouds 6000 ft
Mostly Cloudy 12000 ft
Mostly Cloudy 20000 ft
Heat Index 88 °F
Dew Point 77 °F
Humidity 89%
Rainfall 0.00 in
Snow Depth Not available.
6:27 AM 8:43 PM
Waning Gibbous, 69% visible
METAR KICT 250653Z 10003KT 10SM SCT060 BKN120 BKN200 29/22 A2994 RMK AO2 RAB17E33 TSE48 SLP120 TS MOVE AND DSIPTD P0000 T02940217

10-Day Weather Forecast

Almanac

Astronomy

Jul. 25, 2016 Rise Set
Actual Time
Civil Twilight
Nautical Twilight
Astronomical Twilight
Moon
Length of Visible Light
Length of Day
Tomorrow will be .
, % of the Moon is Illuminated

Today's Extremes

State Highs State Lows

Community

WunderPhotos

Upload Photos

1,927,275 photos uploaded!

WunderBlog® & News

Nearby

Air Quality

  Air Quality AQ Index Pollutant
Not available.

Snow Depth

Station Depth Elevation

Earthquake Activity

City Distance Mag. Time & Date
Minimum magnitude displayed is 2.5.

Coastal Water Temperatures

Place Temperature

Stations

Nearby Weather Stations

Station Location Temp. Windchill Dew Point Humidity Wind Precip. Elev Updated Type
                   

Watches & Warnings

There are currently no watches in effect.